Regional Weather Roundup
Issued by NWS Northern Indiana

Home | Current Version | Previous Version | Text Only | Print | Product List | Glossary Off
Versions: 1 2 3 4 5 6 7 8 9 10 11 12 13 14 15 16 17 18 19 20 21 22 23 24 25 26 27 28 29 30 31 32 33 34 35 36 37 38 39 40 41 42 43 44 45 46 47 48 49 50

000
ASUS43 KIWX 280310
RWRIWX

KIWX WEATHER ROUNDUP
NATIONAL WEATHER SERVICE NORTHERN INDIANA
1000 PM EST FRI FEB 27 2015

NOTE: "FAIR" INDICATES FEW OR NO CLOUDS BELOW 12,000 FEET WITH NO
SIGNIFICANT WEATHER AND/OR OBSTRUCTIONS TO VISIBILITY.

* THESE STATIONS ARE NOT UNDER NWS QUALITY CONTROL. THEY ALSO MAY NOT
  REPORT WEATHER SUCH AS PRECIPITATION OR FOG.

INZ001>027-280400-
NORTHERN INDIANA

CITY           SKY/WX    TMP DP  RH WIND       PRES   REMARKS
GARY*          CLEAR      7  -5  56 CALM      30.68R
VALPARAISO     CLEAR      4  -6  63 SW5       30.66R WCI  -5
MICHIGAN CITY* CLEAR      7  -8  51 SW5       30.67R WCI  -2
LAPORTE*       CLEAR      2  -6  71 W5        30.66R WCI  -8
KNOX*            N/A      0 -17  46 CALM      30.67R
SOUTH BEND     CLEAR      6  -4  63 S8        30.66R WCI  -7
GOSHEN         CLEAR      1  -7  68 SW3       30.65R
MONTICELLO*    PTCLDY     0  -4  82 CALM      30.67S
LOGANSPORT*    PTCLDY     3  -4  72 CALM      30.67S
ROCHESTER*     PTCLDY    10   0  61 SW3       30.67R
WARSAW*        CLEAR      9  -2  61 W5        30.66R WCI   0
ANGOLA*        CLEAR     -2  -6  84 CALM      30.63R
FORT WAYNE     PTCLDY     3  -2  79 W6        30.66R WCI  -8
HUNTINGTON*    CLEAR      7   0  71 CALM      30.66S
PERU/GRISSOM   PTCLDY     4  -3  71 NW1       30.65S
MARION*        PTCLDY     6   1  79 CALM      30.66S

$$
INZ028>050-280400-
CENTRAL INDIANA

CITY           SKY/WX    TMP DP  RH WIND       PRES   REMARKS
LAFAYETTE      PTCLDY     3  -4  72 N3        30.67S
KOKOMO*        PTCLDY     7  -2  66 N3        30.66S
MUNCIE*        MOCLDY     8   1  73 CALM      30.65R
INDIANAPOLIS   CLOUDY    13  -1  54 CALM      30.64R

$$
MIZ043>046-050>051-056>058-064>065-071>073-077>080-280400-
SOUTHWEST LOWER MICHIGAN

CITY           SKY/WX    TMP DP  RH WIND       PRES   REMARKS
BATTLE CREEK   CLEAR      7  -4  60 SW6       30.61R WCI  -3
BENTON HARBOR  CLEAR      7  -2  66 S6        30.65R WCI  -3
COLDWATER*     FAIR       6  -2  68 SW5       30.63R WCI  -3
HILLSDALE*     CLEAR      9  -2  61 SW3       30.60R
HOLLAND        CLEAR      8   0  69 S5        30.63R WCI   0
GRAND RAPIDS   CLEAR     10   1  67 SW9       30.61R WCI  -3
KALAMAZOO      CLEAR      8  -4  58 SW6       30.63R WCI  -2
STURGIS*       CLEAR      7   0  72 CALM      30.63R
THREE RIVERS*  FAIR       9  -1  61 W3        30.64R

$$
OHZ001>008-015>018-024>025-280400-
NORTHWEST OHIO

CITY           SKY/WX    TMP DP  RH WIND       PRES   REMARKS
WAUSEON*       FAIR       9  -4  56 SW7       30.65R WCI  -3
DEFIANCE       CLEAR      3  -5  69 S3        30.68R
FINDLAY        CLEAR      1  -7  68 S7        30.66R WCI -12
TOLEDO EXPRESS CLEAR      4  -5  66 S5        30.66R WCI  -5
TOLEDO METCALF FAIR       7  -5  57 S6        30.68R WCI  -3
LIMA           PTCLDY     7  -5  57 S7        30.65R WCI  -5

$$
AND FOR LAKE MICHIGAN COASTAL AND OPEN LAKE BUOY OBSERVATIONS

STATION/POSITION TEMP    WIND        PRES    VSBY  WAVE
                 AIR SEA DIR/SP/G                  HT/PER
                 (F)     (DEG/KT/KT) (MB)    (MI)  (FT/S)
CALUMET HARBOR     8     220/  3/  6 1036.9R
MICHIGAN CITY      9     170/  7/  8   N/A
SAINT JOSEPH      11     180/ 10/ 13 1037.6R

$$
&&


USA.gov is the U.S. government's official web portal to all federal, state and local government web resources and services.